"datetime","temp","dp","rain_mm","uv","solar","mb","wind_mph","gust_mph","windchill","rh"
"2024-04-16 00:00:00",6.7,4.2,0.0,0.0,0,1008.4,1,3,"",84
"2024-04-16 00:01:00",6.7,4.2,0.0,0.0,0,1008.4,1,2,"",84
"2024-04-16 00:02:00",6.7,4.2,0.0,0.0,0,1008.4,1,4,5.5,84
"2024-04-16 00:03:00",6.7,4.2,0.0,0.0,0,1008.4,1,2,"",84
"2024-04-16 00:04:00",6.7,4.2,0.0,0.0,0,1008.4,1,2,"",84
"2024-04-16 00:05:00",6.7,4.2,0.0,0.0,0,1008.4,1,2,"",84
"2024-04-16 00:06:00",6.7,4.2,0.0,0.0,0,1008.4,2,4,5.5,84
"2024-04-16 00:07:00",6.7,4.2,0.0,0.0,0,1008.4,2,3,"",84
"2024-04-16 00:08:00",6.7,4.2,0.0,0.0,0,1008.5,1,2,"",84
"2024-04-16 00:09:00",6.7,4.2,0.0,0.0,0,1008.5,1,2,"",84
"2024-04-16 00:10:00",6.7,4.2,0.0,0.0,0,1008.5,1,3,"",84
"2024-04-16 00:11:00",6.7,4.2,0.0,0.0,0,1008.5,1,2,"",84
"2024-04-16 00:12:00",6.7,4.2,0.0,0.0,0,1008.5,1,2,"",84
"2024-04-16 00:13:00",6.7,4.2,0.0,0.0,0,1008.6,1,2,"",84
"2024-04-16 00:14:00",6.7,4.2,0.0,0.0,0,1008.5,1,1,"",84
"2024-04-16 00:15:00",6.7,4.2,0.0,0.0,0,1008.5,1,2,"",84
"2024-04-16 00:16:00",6.7,4.2,0.0,0.0,0,1008.6,1,2,"",84
"2024-04-16 00:17:00",6.7,4.2,0.0,0.0,0,1008.6,1,2,"",84
"2024-04-16 00:18:00",6.8,4.3,0.0,0.0,0,1008.5,1,3,"",84
"2024-04-16 00:19:00",6.7,4.2,0.0,0.0,0,1008.6,1,2,"",84
"2024-04-16 00:20:00",6.7,4.2,0.0,0.0,0,1008.6,1,2,"",84
"2024-04-16 00:21:00",6.8,4.3,0.0,0.0,0,1008.7,2,3,"",84
"2024-04-16 00:22:00",6.8,4.5,0.0,0.0,0,1008.6,1,2,"",85
"2024-04-16 00:23:00",6.8,4.5,0.0,0.0,0,1008.6,1,2,"",85
"2024-04-16 00:24:00",6.8,4.5,0.0,0.0,0,1008.5,2,4,5.7,85
"2024-04-16 00:25:00",6.9,4.4,0.0,0.0,0,1008.6,1,3,"",84
"2024-04-16 00:26:00",6.9,4.4,0.0,0.0,0,1008.6,1,2,"",84
"2024-04-16 00:27:00",6.9,4.4,0.0,0.0,0,1008.6,1,2,"",84
"2024-04-16 00:28:00",7.0,4.5,0.0,0.0,0,1008.6,1,3,"",84
"2024-04-16 00:29:00",7.1,4.6,0.0,0.0,0,1008.6,2,3,"",84
"2024-04-16 00:30:00",7.1,4.6,0.0,0.0,0,1008.6,1,2,"",84
"2024-04-16 00:31:00",7.1,4.6,0.0,0.0,0,1008.6,1,3,"",84
"2024-04-16 00:32:00",7.2,4.7,0.0,0.0,0,1008.6,1,2,"",84
"2024-04-16 00:33:00",7.2,4.7,0.0,0.0,0,1008.6,1,3,"",84
"2024-04-16 00:34:00",7.2,4.7,0.0,0.0,0,1008.6,1,2,"",84
"2024-04-16 00:35:00",7.3,4.8,0.0,0.0,0,1008.6,1,3,"",84
"2024-04-16 00:36:00",7.3,4.8,0.0,0.0,0,1008.5,1,3,"",84
"2024-04-16 00:37:00",7.3,4.8,0.0,0.0,0,1008.5,1,3,"",84
"2024-04-16 00:38:00",7.3,4.8,0.0,0.0,0,1008.5,1,2,"",84
"2024-04-16 00:39:00",7.3,4.6,0.0,0.0,0,1008.5,1,2,"",83
"2024-04-16 00:40:00",7.3,4.6,0.0,0.0,0,1008.5,1,2,"",83
"2024-04-16 00:41:00",7.3,4.6,0.0,0.0,0,1008.4,1,2,"",83
"2024-04-16 00:42:00",7.3,4.6,0.0,0.0,0,1008.6,1,3,"",83
"2024-04-16 00:43:00",7.3,4.6,0.0,0.0,0,1008.5,2,4,6.2,83
"2024-04-16 00:44:00",7.3,4.6,0.0,0.0,0,1008.5,1,2,"",83
"2024-04-16 00:45:00",7.3,4.6,0.0,0.0,0,1008.5,2,3,"",83
"2024-04-16 00:46:00",7.3,4.6,0.0,0.0,0,1008.5,2,3,"",83
"2024-04-16 00:47:00",7.4,4.7,0.0,0.0,0,1008.6,2,7,5.3,83
"2024-04-16 00:48:00",7.4,4.7,0.0,0.0,0,1008.5,3,7,5.3,83
"2024-04-16 00:49:00",7.4,4.7,0.0,0.0,0,1008.5,3,5,5.9,83
"2024-04-16 00:50:00",7.4,4.7,0.0,0.0,0,1008.5,2,4,6.4,83
"2024-04-16 00:51:00",7.5,4.8,0.0,0.0,0,1008.5,2,4,6.4,83
"2024-04-16 00:52:00",7.4,4.7,0.0,0.0,0,1008.4,2,4,6.5,83
"2024-04-16 00:53:00",7.5,4.6,0.0,0.0,0,1008.5,2,5,6.1,82
"2024-04-16 00:54:00",7.5,4.6,0.0,0.0,0,1008.5,2,3,"",82
"2024-04-16 00:55:00",7.5,4.6,0.0,0.0,0,1008.5,2,4,6.5,82
"2024-04-16 00:56:00",7.6,4.7,0.0,0.0,0,1008.6,1,2,"",82
"2024-04-16 00:57:00",7.6,4.7,0.0,0.0,0,1008.6,2,5,6.2,82
"2024-04-16 00:58:00",7.6,4.7,0.0,0.0,0,1008.5,2,7,5.5,82
"2024-04-16 00:59:00",7.6,4.7,0.0,0.0,0,1008.6,2,4,6.6,82
"2024-04-16 01:00:00",7.6,4.7,0.0,0.0,0,1008.6,1,2,"",82
"2024-04-16 01:01:00",7.6,4.7,0.0,0.0,0,1008.6,1,2,"",82
"2024-04-16 01:02:00",7.6,4.7,0.0,0.0,0,1008.6,1,3,"",82
"2024-04-16 01:03:00",7.6,4.7,0.0,0.0,0,1008.6,2,4,6.6,82
"2024-04-16 01:04:00",7.6,4.7,0.0,0.0,0,1008.6,1,4,6.6,82
"2024-04-16 01:05:00",7.7,4.8,0.0,0.0,0,1008.6,2,3,"",82
"2024-04-16 01:06:00",7.7,4.8,0.0,0.0,0,1008.6,2,4,6.6,82
"2024-04-16 01:07:00",7.7,4.8,0.0,0.0,0,1008.6,2,4,6.7,82
"2024-04-16 01:08:00",7.7,4.8,0.0,0.0,0,1008.6,1,3,"",82
"2024-04-16 01:09:00",7.7,4.8,0.0,0.0,0,1008.6,2,3,"",82
"2024-04-16 01:10:00",7.8,4.9,0.0,0.0,0,1008.7,4,7,5.7,82
"2024-04-16 01:11:00",7.8,4.7,0.0,0.0,0,1008.6,1,3,"",81
"2024-04-16 01:12:00",7.8,4.7,0.0,0.0,0,1008.6,2,3,"",81
"2024-04-16 01:13:00",7.8,4.7,0.0,0.0,0,1008.5,2,5,6.4,81
"2024-04-16 01:14:00",7.8,4.7,0.0,0.0,0,1008.5,1,2,"",81
"2024-04-16 01:15:00",7.8,4.7,0.0,0.0,0,1008.5,1,2,"",81
"2024-04-16 01:16:00",7.8,4.7,0.0,0.0,0,1008.4,1,3,"",81
"2024-04-16 01:17:00",7.7,4.6,0.0,0.0,0,1008.5,1,4,6.7,81
"2024-04-16 01:18:00",7.7,4.8,0.0,0.0,0,1008.4,3,4,6.7,82
"2024-04-16 01:19:00",7.7,4.8,0.0,0.0,0,1008.5,2,5,6.3,82
"2024-04-16 01:20:00",7.6,4.7,0.0,0.0,0,1008.4,1,3,"",82
"2024-04-16 01:21:00",7.6,4.7,0.0,0.0,0,1008.4,1,2,"",82
"2024-04-16 01:22:00",7.6,4.7,0.0,0.0,0,1008.5,2,4,6.6,82
"2024-04-16 01:23:00",7.6,4.7,0.0,0.0,0,1008.4,1,3,"",82
"2024-04-16 01:24:00",7.6,4.7,0.0,0.0,0,1008.5,2,6,5.8,82
"2024-04-16 01:25:00",7.5,4.6,0.0,0.0,0,1008.4,1,3,"",82
"2024-04-16 01:26:00",7.4,4.5,0.0,0.0,0,1008.5,1,2,"",82
"2024-04-16 01:27:00",7.4,4.5,0.0,0.0,0,1008.4,1,3,"",82
"2024-04-16 01:28:00",7.4,4.5,0.0,0.0,0,1008.4,2,4,6.4,82
"2024-04-16 01:29:00",7.4,4.5,0.0,0.0,0,1008.4,2,3,"",82
"2024-04-16 01:30:00",7.4,4.5,0.0,0.0,0,1008.4,3,6,5.6,82
"2024-04-16 01:31:00",7.4,4.7,0.0,0.0,0,1008.4,3,7,5.3,83
"2024-04-16 01:32:00",7.5,4.6,0.0,0.0,0,1008.4,1,2,"",82
"2024-04-16 01:33:00",7.6,4.7,0.0,0.0,0,1008.3,1,3,"",82
"2024-04-16 01:34:00",7.6,4.7,0.0,0.0,0,1008.3,1,3,"",82
"2024-04-16 01:35:00",7.6,4.7,0.0,0.0,0,1008.3,2,3,"",82
"2024-04-16 01:36:00",7.6,4.7,0.0,0.0,0,1008.3,1,3,"",82
"2024-04-16 01:37:00",7.6,4.7,0.0,0.0,0,1008.2,1,3,"",82
"2024-04-16 01:38:00",7.6,4.7,0.0,0.0,0,1008.2,1,3,"",82
"2024-04-16 01:39:00",7.6,4.7,0.0,0.0,0,1008.3,1,3,"",82
"2024-04-16 01:40:00",7.6,4.7,0.0,0.0,0,1008.3,1,3,"",82
"2024-04-16 01:41:00",7.6,4.7,0.0,0.0,0,1008.4,1,2,"",82
"2024-04-16 01:42:00",7.6,4.7,0.0,0.0,0,1008.2,3,5,6.2,82
"2024-04-16 01:43:00",7.6,4.7,0.0,0.0,0,1008.3,2,3,"",82
"2024-04-16 01:44:00",7.6,4.7,0.0,0.0,0,1008.3,2,5,6.2,82
"2024-04-16 01:45:00",7.6,4.7,0.0,0.0,0,1008.4,3,7,5.5,82
"2024-04-16 01:46:00",7.6,4.7,0.0,0.0,0,1008.4,2,4,6.6,82
"2024-04-16 01:47:00",7.6,4.7,0.0,0.0,0,1008.3,3,5,6.2,82
"2024-04-16 01:48:00",7.6,4.7,0.0,0.0,0,1008.3,2,7,5.5,82
"2024-04-16 01:49:00",7.6,4.7,0.0,0.0,0,1008.2,3,7,5.5,82
"2024-04-16 01:50:00",7.7,4.8,0.0,0.0,0,1008.3,1,2,"",82
"2024-04-16 01:51:00",7.7,4.8,0.0,0.0,0,1008.2,2,6,6.0,82
"2024-04-16 01:52:00",7.7,4.8,0.0,0.0,0,1008.3,2,5,6.3,82
"2024-04-16 01:53:00",7.7,4.6,0.0,0.0,0,1008.3,1,4,6.7,81
"2024-04-16 01:54:00",7.7,4.6,0.0,0.0,0,1008.2,2,4,6.7,81
"2024-04-16 01:55:00",7.7,4.6,0.0,0.0,0,1008.3,3,4,6.7,81
"2024-04-16 01:56:00",7.7,4.6,0.0,0.0,0,1008.2,3,6,6.0,81
"2024-04-16 01:57:00",7.7,4.8,0.0,0.0,0,1008.2,1,2,"",82
"2024-04-16 01:58:00",7.6,4.7,0.0,0.0,0,1008.2,1,3,"",82
"2024-04-16 01:59:00",7.6,4.7,0.0,0.0,0,1008.2,1,3,"",82
"2024-04-16 02:00:00",7.6,4.7,0.0,0.0,0,1008.2,2,3,"",82
"2024-04-16 02:01:00",7.6,4.7,0.0,0.0,0,1008.1,2,3,"",82
"2024-04-16 02:02:00",7.7,4.8,0.0,0.0,0,1008.2,2,4,6.7,82
"2024-04-16 02:03:00",7.7,4.8,0.0,0.0,0,1008.2,2,4,6.7,82
"2024-04-16 02:04:00",7.7,4.8,0.0,0.0,0,1008.3,1,2,"",82
"2024-04-16 02:05:00",7.7,4.8,0.0,0.0,0,1008.2,2,6,6.0,82
"2024-04-16 02:06:00",7.7,4.8,0.0,0.0,0,1008.2,3,5,6.3,82
"2024-04-16 02:07:00",7.7,4.8,0.0,0.0,0,1008.1,1,2,"",82
"2024-04-16 02:08:00",7.6,4.7,0.0,0.0,0,1008.2,2,3,"",82
"2024-04-16 02:09:00",7.7,4.8,0.0,0.0,0,1008.1,1,2,"",82
"2024-04-16 02:10:00",7.7,4.8,0.0,0.0,0,1008.2,2,5,6.2,82
"2024-04-16 02:11:00",7.7,4.8,0.0,0.0,0,1008.2,2,3,"",82
"2024-04-16 02:12:00",7.7,4.8,0.0,0.0,0,1008.2,2,3,"",82
"2024-04-16 02:13:00",7.7,4.8,0.0,0.0,0,1008.2,2,4,6.7,82
"2024-04-16 02:14:00",7.7,5.0,0.0,0.0,0,1008.1,4,6,6.0,83
"2024-04-16 02:15:00",7.8,4.9,0.0,0.0,0,1008.2,3,5,6.3,82
"2024-04-16 02:16:00",7.8,4.9,0.0,0.0,0,1008.2,3,5,6.4,82
"2024-04-16 02:17:00",7.8,4.9,0.0,0.0,0,1008.2,3,7,5.8,82
"2024-04-16 02:18:00",7.8,4.9,0.0,0.0,0,1008.2,2,8,5.5,82
"2024-04-16 02:19:00",7.8,4.9,0.0,0.0,0,1008.2,2,3,"",82
"2024-04-16 02:20:00",7.9,5.0,0.0,0.0,0,1008.2,2,4,6.9,82
"2024-04-16 02:21:00",7.9,5.0,0.0,0.0,0,1008.2,3,6,6.2,82
"2024-04-16 02:22:00",7.9,5.0,0.0,0.0,0,1008.2,2,6,6.2,82
"2024-04-16 02:23:00",8.0,5.1,0.0,0.0,0,1008.2,2,7,5.9,82
"2024-04-16 02:24:00",8.0,5.1,0.0,0.0,0,1008.3,2,4,7.0,82
"2024-04-16 02:25:00",8.1,5.2,0.0,0.0,0,1008.3,2,3,"",82
"2024-04-16 02:26:00",8.1,5.2,0.0,0.0,0,1008.3,2,4,7.2,82
"2024-04-16 02:27:00",8.1,5.2,0.0,0.0,0,1008.3,2,5,6.8,82
"2024-04-16 02:28:00",8.1,5.2,0.0,0.0,0,1008.4,2,4,7.2,82
"2024-04-16 02:29:00",8.1,5.2,0.0,0.0,0,1008.5,3,4,7.2,82
"2024-04-16 02:30:00",8.1,5.0,0.0,0.0,0,1008.3,3,5,6.6,81
"2024-04-16 02:31:00",8.1,5.2,0.0,0.0,0,1008.3,2,4,7.2,82
"2024-04-16 02:32:00",8.0,5.1,0.0,0.0,0,1008.3,2,3,"",82
"2024-04-16 02:33:00",8.0,5.1,0.0,0.0,0,1008.2,1,2,"",82
"2024-04-16 02:34:00",8.0,5.1,0.0,0.0,0,1008.3,2,3,"",82
"2024-04-16 02:35:00",7.9,5.0,0.0,0.0,0,1008.3,2,4,6.9,82
"2024-04-16 02:36:00",7.9,5.0,0.0,0.0,0,1008.3,2,3,"",82
"2024-04-16 02:37:00",7.9,5.0,0.0,0.0,0,1008.3,2,3,"",82
"2024-04-16 02:38:00",7.9,5.0,0.0,0.0,0,1008.3,2,4,6.9,82
"2024-04-16 02:39:00",7.9,5.0,0.0,0.0,0,1008.3,2,6,6.2,82
"2024-04-16 02:40:00",7.9,5.0,0.0,0.0,0,1008.3,1,2,"",82
"2024-04-16 02:41:00",7.9,5.0,0.0,0.0,0,1008.3,2,4,6.9,82
"2024-04-16 02:42:00",7.9,5.0,0.0,0.0,0,1008.4,2,5,6.5,82
"2024-04-16 02:43:00",7.9,5.0,0.0,0.0,0,1008.3,2,3,"",82
"2024-04-16 02:44:00",7.9,5.0,0.0,0.0,0,1008.3,2,5,6.5,82
"2024-04-16 02:45:00",7.9,5.2,0.0,0.0,0,1008.4,2,4,6.9,83
"2024-04-16 02:46:00",7.8,5.1,0.0,0.0,0,1008.5,2,4,6.9,83
"2024-04-16 02:47:00",7.9,5.2,0.0,0.0,0,1008.4,2,3,"",83
"2024-04-16 02:48:00",7.9,5.2,0.0,0.0,0,1008.4,1,2,"",83
"2024-04-16 02:49:00",7.9,5.2,0.0,0.0,0,1008.4,2,3,"",83
"2024-04-16 02:50:00",7.8,5.1,0.0,0.0,0,1008.3,3,4,6.8,83
"2024-04-16 02:51:00",7.9,5.2,0.0,0.0,0,1008.3,1,3,"",83
"2024-04-16 02:52:00",7.9,5.2,0.0,0.0,0,1008.3,2,6,6.2,83
"2024-04-16 02:53:00",7.8,5.1,0.0,0.0,0,1008.4,1,5,6.4,83
"2024-04-16 02:54:00",7.9,5.2,0.0,0.0,0,1008.4,3,5,6.4,83
"2024-04-16 02:55:00",7.8,5.1,0.0,0.0,0,1008.4,2,4,6.8,83
"2024-04-16 02:56:00",7.8,5.1,0.0,0.0,0,1008.4,2,4,6.8,83
"2024-04-16 02:57:00",7.8,5.1,0.0,0.0,0,1008.4,1,2,"",83
"2024-04-16 02:58:00",7.8,5.1,0.0,0.0,0,1008.3,2,3,"",83
"2024-04-16 02:59:00",7.8,5.1,0.0,0.0,0,1008.4,3,6,6.1,83
"2024-04-16 03:00:00",7.9,5.2,0.0,0.0,0,1008.4,1,3,"",83
"2024-04-16 03:01:00",7.9,5.2,0.0,0.0,0,1008.4,2,3,"",83
"2024-04-16 03:02:00",7.9,5.2,0.0,0.0,0,1008.4,2,3,"",83
"2024-04-16 03:03:00",7.9,5.2,0.0,0.0,0,1008.4,2,3,"",83
"2024-04-16 03:04:00",7.9,5.2,0.0,0.0,0,1008.4,1,3,"",83
"2024-04-16 03:05:00",7.9,5.2,0.0,0.0,0,1008.4,2,5,6.5,83
"2024-04-16 03:06:00",7.9,5.2,0.0,0.0,0,1008.4,2,4,6.9,83
"2024-04-16 03:07:00",7.9,5.2,0.0,0.0,0,1008.4,1,4,6.9,83
"2024-04-16 03:08:00",7.9,5.2,0.0,0.0,0,1008.4,2,5,6.5,83
"2024-04-16 03:09:00",7.9,5.2,0.0,0.0,0,1008.4,1,3,"",83
"2024-04-16 03:10:00",7.9,5.2,0.0,0.0,0,1008.4,1,3,"",83
"2024-04-16 03:11:00",7.9,5.2,0.0,0.0,0,1008.4,2,3,"",83
"2024-04-16 03:12:00",7.9,5.2,0.0,0.0,0,1008.4,3,5,6.4,83
"2024-04-16 03:13:00",7.8,5.1,0.0,0.0,0,1008.4,2,4,6.8,83
"2024-04-16 03:14:00",7.9,5.2,0.0,0.0,0,1008.4,2,5,6.4,83
"2024-04-16 03:15:00",7.9,5.4,0.0,0.0,0,1008.4,2,4,6.9,84
"2024-04-16 03:16:00",7.9,5.4,0.0,0.0,0,1008.4,1,2,"",84
"2024-04-16 03:17:00",7.9,5.2,0.0,0.0,0,1008.5,3,7,5.9,83
"2024-04-16 03:18:00",7.9,5.2,0.0,0.0,0,1008.4,2,4,6.9,83
"2024-04-16 03:19:00",8.0,5.3,0.0,0.0,0,1008.4,1,3,"",83
"2024-04-16 03:20:00",8.0,5.3,0.0,0.0,0,1008.4,2,3,"",83
"2024-04-16 03:21:00",8.0,5.3,0.0,0.0,0,1008.4,2,5,6.6,83
"2024-04-16 03:22:00",8.1,5.4,0.0,0.0,0,1008.4,1,2,"",83
"2024-04-16 03:23:00",8.0,5.3,0.0,0.0,0,1008.4,2,3,"",83
"2024-04-16 03:24:00",8.0,5.3,0.0,0.0,0,1008.4,2,5,6.6,83
"2024-04-16 03:25:00",8.0,5.3,0.0,0.0,0,1008.5,2,4,7.0,83
"2024-04-16 03:26:00",8.0,5.3,0.0,0.0,0,1008.5,1,3,"",83
"2024-04-16 03:27:00",7.9,5.2,0.0,0.0,0,1008.5,1,2,"",83
"2024-04-16 03:28:00",7.9,5.2,0.0,0.0,0,1008.5,2,3,"",83
"2024-04-16 03:29:00",7.9,5.2,0.0,0.0,0,1008.5,1,3,"",83
"2024-04-16 03:30:00",7.9,5.2,0.0,0.0,0,1008.5,1,3,"",83
"2024-04-16 03:31:00",7.9,5.4,0.0,0.0,0,1008.5,1,2,"",84
"2024-04-16 03:32:00",7.9,5.4,0.0,0.0,0,1008.5,2,6,6.2,84
"2024-04-16 03:33:00",7.9,5.4,0.0,0.0,0,1008.6,3,5,6.5,84
"2024-04-16 03:34:00",7.8,5.3,0.0,0.0,0,1008.5,1,2,"",84
"2024-04-16 03:35:00",7.8,5.1,0.0,0.0,0,1008.5,2,3,"",83
"2024-04-16 03:36:00",7.8,5.1,0.0,0.0,0,1008.5,1,3,"",83
"2024-04-16 03:37:00",7.8,5.1,0.0,0.0,0,1008.6,2,3,"",83
"2024-04-16 03:38:00",7.8,5.1,0.0,0.0,0,1008.5,2,3,"",83
"2024-04-16 03:39:00",7.8,5.3,0.0,0.0,0,1008.6,2,3,"",84
"2024-04-16 03:40:00",7.8,5.3,0.0,0.0,0,1008.6,2,3,"",84
"2024-04-16 03:41:00",7.7,5.2,0.0,0.0,0,1008.6,1,1,"",84
"2024-04-16 03:42:00",7.7,5.2,0.0,0.0,0,1008.6,1,1,"",84
"2024-04-16 03:43:00",7.7,5.2,0.0,0.0,0,1008.6,1,2,"",84
"2024-04-16 03:44:00",7.6,5.1,0.0,0.0,0,1008.5,1,2,"",84
"2024-04-16 03:45:00",7.6,5.1,0.0,0.0,0,1008.5,1,3,"",84
"2024-04-16 03:46:00",7.5,5.0,0.0,0.0,0,1008.5,2,6,5.7,84
"2024-04-16 03:47:00",7.5,5.1,0.0,0.0,0,1008.5,1,2,"",85
"2024-04-16 03:48:00",7.5,5.1,0.0,0.0,0,1008.5,1,1,"",85
"2024-04-16 03:49:00",7.5,5.1,0.0,0.0,0,1008.6,2,4,6.5,85
"2024-04-16 03:50:00",7.4,5.0,0.0,0.0,0,1008.5,1,1,"",85
"2024-04-16 03:51:00",7.4,5.0,0.0,0.0,0,1008.6,1,2,"",85
"2024-04-16 03:52:00",7.4,5.0,0.0,0.0,0,1008.6,2,3,"",85
"2024-04-16 03:53:00",7.4,5.0,0.0,0.0,0,1008.6,3,7,5.3,85
"2024-04-16 03:54:00",7.4,5.0,0.0,0.0,0,1008.7,2,5,5.9,85
"2024-04-16 03:55:00",7.4,5.0,0.0,0.0,0,1008.7,1,2,"",85
"2024-04-16 03:56:00",7.4,5.0,0.0,0.0,0,1008.7,3,5,5.9,85
"2024-04-16 03:57:00",7.4,5.0,0.0,0.0,0,1008.7,2,3,"",85
"2024-04-16 03:58:00",7.4,5.0,0.0,0.0,0,1008.7,2,3,"",85
"2024-04-16 03:59:00",7.5,5.1,0.0,0.0,0,1008.7,1,2,"",85
"2024-04-16 04:00:00",7.5,5.1,0.0,0.0,0,1008.8,1,2,"",85
"2024-04-16 04:01:00",7.6,5.2,0.0,0.0,0,1008.7,2,5,6.1,85
"2024-04-16 04:02:00",7.6,5.2,0.0,0.0,0,1008.7,1,4,6.6,85
"2024-04-16 04:03:00",7.6,5.2,0.0,0.0,0,1008.7,1,3,"",85
"2024-04-16 04:04:00",7.6,5.2,0.0,0.0,0,1008.7,1,4,6.6,85
"2024-04-16 04:05:00",7.6,5.2,0.0,0.0,0,1008.7,1,3,"",85
"2024-04-16 04:06:00",7.6,5.2,0.0,0.0,0,1008.7,2,3,"",85
"2024-04-16 04:07:00",7.6,5.2,0.0,0.0,0,1008.7,1,3,"",85
"2024-04-16 04:08:00",7.6,5.2,0.0,0.0,0,1008.7,2,3,"",85
"2024-04-16 04:09:00",7.6,5.2,0.0,0.0,0,1008.7,2,3,"",85
"2024-04-16 04:10:00",7.6,5.2,0.0,0.0,0,1008.7,1,2,"",85
"2024-04-16 04:11:00",7.6,5.2,0.0,0.0,0,1008.7,2,3,"",85
"2024-04-16 04:12:00",7.7,5.3,0.0,0.0,0,1008.8,1,5,6.3,85
"2024-04-16 04:13:00",7.7,5.3,0.0,0.0,0,1008.8,2,3,"",85
"2024-04-16 04:14:00",7.7,5.3,0.0,0.0,0,1008.7,1,3,"",85
"2024-04-16 04:15:00",7.8,5.4,0.0,0.0,0,1008.8,2,5,6.4,85
"2024-04-16 04:16:00",7.8,5.4,0.0,0.0,0,1008.7,3,5,6.4,85
"2024-04-16 04:17:00",7.8,5.4,0.0,0.0,0,1008.8,2,3,"",85
"2024-04-16 04:18:00",7.8,5.4,0.0,0.0,0,1008.8,1,3,"",85
"2024-04-16 04:19:00",7.9,5.5,0.0,0.0,0,1008.8,2,6,6.2,85
"2024-04-16 04:20:00",7.9,5.5,0.0,0.0,0,1008.7,3,4,6.9,85
"2024-04-16 04:21:00",7.9,5.4,0.0,0.0,0,1008.8,2,5,6.5,84
"2024-04-16 04:22:00",8.0,5.5,0.0,0.0,0,1008.8,2,3,"",84
"2024-04-16 04:23:00",8.0,5.5,0.0,0.0,0,1008.8,1,3,"",84
"2024-04-16 04:24:00",8.0,5.5,0.0,0.0,0,1008.8,2,3,"",84
"2024-04-16 04:25:00",8.0,5.5,0.0,0.0,0,1008.8,1,2,"",84
"2024-04-16 04:26:00",8.1,5.6,0.0,0.0,0,1008.8,0,1,"",84
"2024-04-16 04:27:00",8.1,5.6,0.0,0.0,0,1008.9,1,3,"",84
"2024-04-16 04:28:00",8.1,5.6,0.0,0.0,0,1008.8,3,7,6.1,84
"2024-04-16 04:29:00",8.1,5.6,0.0,0.0,0,1008.8,1,2,"",84
"2024-04-16 04:30:00",8.1,5.6,0.0,0.0,0,1008.8,1,2,"",84
"2024-04-16 04:31:00",8.1,5.6,0.0,0.0,0,1008.8,2,3,"",84
"2024-04-16 04:32:00",8.2,5.7,0.0,0.0,0,1008.9,2,3,"",84
"2024-04-16 04:33:00",8.2,5.7,0.0,0.0,0,1008.9,1,3,"",84
"2024-04-16 04:34:00",8.1,5.6,0.0,0.0,0,1008.9,1,2,"",84
"2024-04-16 04:35:00",8.2,5.7,0.0,0.0,0,1008.9,1,4,7.3,84
"2024-04-16 04:36:00",8.1,5.7,0.0,0.0,0,1008.9,1,4,7.3,85
"2024-04-16 04:37:00",8.2,5.8,0.0,0.0,0,1008.9,1,3,"",85
"2024-04-16 04:38:00",8.2,5.8,0.0,0.0,0,1009.0,1,2,"",85
"2024-04-16 04:39:00",8.2,5.7,0.0,0.0,0,1009.0,1,4,7.3,84
"2024-04-16 04:40:00",8.2,5.7,0.0,0.0,0,1008.9,1,3,"",84
"2024-04-16 04:41:00",8.2,5.7,0.0,0.0,0,1008.9,1,2,"",84
"2024-04-16 04:42:00",8.2,5.8,0.0,0.0,0,1008.9,1,2,"",85
"2024-04-16 04:43:00",8.2,5.8,0.0,0.0,0,1008.9,4,8,6.0,85
"2024-04-16 04:44:00",8.2,5.8,0.0,0.0,0,1008.8,2,4,7.3,85
"2024-04-16 04:45:00",8.2,5.8,0.0,0.0,0,1008.8,2,5,6.9,85
"2024-04-16 04:46:00",8.2,5.8,0.0,0.0,0,1008.8,1,2,"",85
"2024-04-16 04:47:00",8.1,5.7,0.0,0.0,0,1008.8,1,2,"",85
"2024-04-16 04:48:00",8.1,5.7,0.0,0.0,0,1008.9,2,4,7.2,85
"2024-04-16 04:49:00",8.1,5.7,0.0,0.0,0,1008.8,2,4,7.2,85
"2024-04-16 04:50:00",8.1,5.7,0.0,0.0,0,1008.9,1,4,7.2,85
"2024-04-16 04:51:00",8.0,5.6,0.0,0.0,0,1008.9,2,4,7.0,85
"2024-04-16 04:52:00",8.0,5.6,0.0,0.0,0,1008.9,3,6,6.3,85
"2024-04-16 04:53:00",7.9,5.5,0.0,0.0,0,1009.0,1,2,"",85
"2024-04-16 04:54:00",7.9,5.7,0.0,0.0,0,1008.9,1,3,"",86
"2024-04-16 04:55:00",7.9,5.7,0.0,0.0,0,1009.0,1,2,"",86
"2024-04-16 04:56:00",7.9,5.7,0.0,0.0,0,1009.0,2,6,6.2,86
"2024-04-16 04:57:00",7.9,5.7,0.0,0.0,0,1009.0,2,5,6.5,86
"2024-04-16 04:58:00",7.9,5.7,0.0,0.0,0,1009.1,1,2,"",86
"2024-04-16 04:59:00",7.8,5.6,0.0,0.0,0,1009.0,1,2,"",86
"2024-04-16 05:00:00",7.8,5.6,0.0,0.0,0,1009.1,1,2,"",86
"2024-04-16 05:01:00",7.8,5.6,0.0,0.0,0,1009.1,1,2,"",86
"2024-04-16 05:02:00",7.8,5.6,0.0,0.0,0,1009.1,1,2,"",86
"2024-04-16 05:03:00",7.9,5.7,0.0,0.0,0,1009.0,1,1,"",86
"2024-04-16 05:04:00",7.9,5.7,0.0,0.0,0,1009.1,0,1,"",86
"2024-04-16 05:05:00",7.9,5.7,0.0,0.0,0,1009.0,1,2,"",86
"2024-04-16 05:06:00",7.9,5.7,0.0,0.0,0,1009.1,1,2,"",86
"2024-04-16 05:07:00",7.9,5.7,0.0,0.0,0,1009.1,3,6,6.2,86
"2024-04-16 05:08:00",8.0,5.8,0.0,0.0,0,1009.1,1,2,"",86
"2024-04-16 05:09:00",8.1,5.9,0.0,0.0,0,1009.2,0,1,"",86
"2024-04-16 05:10:00",8.1,5.9,0.0,0.0,0,1009.2,2,3,"",86
"2024-04-16 05:11:00",8.1,5.9,0.0,0.0,0,1009.2,2,5,6.8,86
"2024-04-16 05:12:00",8.1,5.9,0.0,0.0,0,1009.3,1,2,"",86
"2024-04-16 05:13:00",8.1,5.9,0.0,0.0,0,1009.2,1,2,"",86
"2024-04-16 05:14:00",8.1,5.9,0.0,0.0,0,1009.3,0,2,"",86
"2024-04-16 05:15:00",8.1,5.9,0.0,0.0,0,1009.2,1,4,7.2,86
"2024-04-16 05:16:00",8.1,5.9,0.0,0.0,0,1009.2,1,2,"",86
"2024-04-16 05:17:00",8.1,5.9,0.0,0.0,0,1009.2,1,2,"",86
"2024-04-16 05:18:00",8.1,5.9,0.0,0.0,0,1009.2,1,3,"",86
"2024-04-16 05:19:00",8.1,5.9,0.0,0.0,0,1009.2,2,3,"",86
"2024-04-16 05:20:00",8.1,5.9,0.0,0.0,0,1009.2,1,4,7.2,86
"2024-04-16 05:21:00",8.1,5.9,0.0,0.0,0,1009.2,2,3,"",86
"2024-04-16 05:22:00",8.1,5.9,0.0,0.0,0,1009.2,1,2,"",86
"2024-04-16 05:23:00",8.1,5.9,0.0,0.0,0,1009.3,1,3,"",86
"2024-04-16 05:24:00",8.1,5.9,0.0,0.0,0,1009.3,1,3,"",86
"2024-04-16 05:25:00",8.1,5.9,0.0,0.0,0,1009.3,2,4,7.2,86
"2024-04-16 05:26:00",8.1,5.9,0.0,0.0,0,1009.2,1,2,"",86
"2024-04-16 05:27:00",8.1,5.9,0.0,0.0,0,1009.2,1,2,"",86
"2024-04-16 05:28:00",8.1,5.7,0.0,0.0,0,1009.3,1,3,"",85
"2024-04-16 05:29:00",8.1,5.7,0.0,0.0,0,1009.3,1,3,"",85
"2024-04-16 05:30:00",8.1,5.7,0.0,0.0,0,1009.3,1,2,"",85
"2024-04-16 05:31:00",8.1,5.9,0.0,0.0,0,1009.3,1,2,"",86
"2024-04-16 05:32:00",8.1,5.7,0.0,0.0,0,1009.3,1,3,"",85
"2024-04-16 05:33:00",8.1,5.9,0.0,0.0,0,1009.3,2,3,"",86
"2024-04-16 05:34:00",8.1,5.9,0.0,0.0,0,1009.3,3,6,6.4,86
"2024-04-16 05:35:00",8.1,5.9,0.0,0.0,0,1009.4,3,6,6.4,86
"2024-04-16 05:36:00",8.1,5.9,0.0,0.0,0,1009.4,1,2,"",86
"2024-04-16 05:37:00",8.2,5.8,0.0,0.0,0,1009.4,2,4,7.2,85
"2024-04-16 05:38:00",8.1,5.7,0.0,0.0,0,1009.4,1,3,"",85
"2024-04-16 05:39:00",8.2,5.8,0.0,0.0,0,1009.4,1,2,"",85
"2024-04-16 05:40:00",8.2,5.8,0.0,0.0,0,1009.4,2,3,"",85
"2024-04-16 05:41:00",8.2,5.8,0.0,0.0,0,1009.4,1,3,"",85
"2024-04-16 05:42:00",8.2,5.8,0.0,0.0,0,1009.4,2,5,6.9,85
"2024-04-16 05:43:00",8.2,6.0,0.0,0.0,0,1009.5,2,4,7.3,86
"2024-04-16 05:44:00",8.2,6.0,0.0,0.0,0,1009.5,1,4,7.3,86
"2024-04-16 05:45:00",8.2,6.0,0.0,0.0,0,1009.5,1,2,"",86
"2024-04-16 05:46:00",8.2,5.8,0.0,0.0,0,1009.5,2,4,7.3,85
"2024-04-16 05:47:00",8.2,5.8,0.0,0.0,0,1009.5,1,2,"",85
"2024-04-16 05:48:00",8.2,5.8,0.0,0.0,0,1009.5,1,2,"",85
"2024-04-16 05:49:00",8.2,5.8,0.0,0.0,0,1009.5,1,3,"",85
"2024-04-16 05:50:00",8.2,5.8,0.0,0.0,0,1009.6,1,2,"",85
"2024-04-16 05:51:00",8.2,5.8,0.0,0.0,0,1009.6,1,2,"",85
"2024-04-16 05:52:00",8.2,5.8,0.0,0.0,0,1009.6,2,3,"",85
"2024-04-16 05:53:00",8.1,5.7,0.0,0.0,0,1009.6,1,2,"",85
"2024-04-16 05:54:00",8.1,5.9,0.0,0.0,0,1009.6,1,3,"",86
"2024-04-16 05:55:00",8.1,5.7,0.0,0.0,0,1009.6,1,1,"",85
"2024-04-16 05:56:00",8.1,5.7,0.0,0.0,0,1009.6,0,1,"",85
"2024-04-16 05:57:00",8.0,5.6,0.0,0.0,0,1009.6,1,2,"",85
"2024-04-16 05:58:00",7.9,5.5,0.0,0.0,0,1009.6,0,1,"",85
"2024-04-16 05:59:00",7.9,5.7,0.0,0.0,0,1009.6,1,2,"",86
"2024-04-16 06:00:00",7.9,5.7,0.0,0.0,0,1009.6,1,3,"",86
"2024-04-16 06:01:00",7.9,5.7,0.0,0.0,0,1009.6,1,4,6.8,86
"2024-04-16 06:02:00",7.8,5.6,0.0,0.0,0,1009.6,2,2,"",86
"2024-04-16 06:03:00",7.8,5.6,0.0,0.0,0,1009.6,2,4,6.8,86
"2024-04-16 06:04:00",7.8,5.6,0.0,0.0,0,1009.6,1,2,"",86
"2024-04-16 06:05:00",7.8,5.6,0.0,0.0,0,1009.7,1,2,"",86
"2024-04-16 06:06:00",7.8,5.6,0.0,0.0,0,1009.6,1,2,"",86
"2024-04-16 06:07:00",7.8,5.6,0.0,0.0,0,1009.7,1,3,"",86
"2024-04-16 06:08:00",7.7,5.5,0.0,0.0,0,1009.7,1,2,"",86
"2024-04-16 06:09:00",7.7,5.5,0.0,0.0,0,1009.7,1,2,"",86
"2024-04-16 06:10:00",7.7,5.5,0.0,0.0,0,1009.7,1,3,"",86
"2024-04-16 06:11:00",7.7,5.5,0.0,0.0,0,1009.7,2,2,"",86
"2024-04-16 06:12:00",7.7,5.5,0.0,0.0,0,1009.7,0,1,"",86
"2024-04-16 06:13:00",7.7,5.5,0.0,0.0,0,1009.8,1,2,"",86
"2024-04-16 06:14:00",7.7,5.7,0.0,0.0,0,1009.7,2,4,6.7,87
"2024-04-16 06:15:00",7.7,5.7,0.0,0.0,0,1009.7,2,3,"",87
"2024-04-16 06:16:00",7.7,5.7,0.0,0.0,0,1009.7,1,3,"",87
"2024-04-16 06:17:00",7.7,5.7,0.0,0.0,0,1009.7,0,1,"",87
"2024-04-16 06:18:00",7.7,5.7,0.0,0.0,5,1009.8,0,2,"",87
"2024-04-16 06:19:00",7.7,5.7,0.0,0.0,5,1009.8,1,2,"",87
"2024-04-16 06:20:00",7.7,5.7,0.0,0.0,5,1009.8,1,2,"",87
"2024-04-16 06:21:00",7.7,5.7,0.0,0.0,5,1009.8,0,1,"",87
"2024-04-16 06:22:00",7.7,5.7,0.0,0.0,5,1009.8,1,2,"",87
"2024-04-16 06:23:00",7.7,5.7,0.0,0.0,5,1009.8,2,3,"",87
"2024-04-16 06:24:00",7.7,5.7,0.0,0.0,5,1009.8,2,3,"",87
"2024-04-16 06:25:00",7.7,5.7,0.0,0.0,5,1009.8,1,2,"",87
"2024-04-16 06:26:00",7.7,5.7,0.0,0.0,5,1009.8,1,2,"",87
"2024-04-16 06:27:00",7.7,5.7,0.0,0.0,5,1009.8,1,2,"",87
"2024-04-16 06:28:00",7.7,5.7,0.0,0.0,5,1009.8,1,2,"",87
"2024-04-16 06:29:00",7.7,5.7,0.0,0.0,7,1009.8,2,4,6.7,87
"2024-04-16 06:30:00",7.8,5.8,0.0,0.0,7,1009.8,0,1,"",87
"2024-04-16 06:31:00",7.8,5.8,0.0,0.0,9,1009.8,1,2,"",87
"2024-04-16 06:32:00",7.8,5.8,0.0,0.0,9,1009.9,2,3,"",87
"2024-04-16 06:33:00",7.8,5.8,0.0,0.0,9,1009.8,2,3,"",87
"2024-04-16 06:34:00",7.8,5.8,0.0,0.0,9,1009.9,1,2,"",87
"2024-04-16 06:35:00",7.8,5.8,0.0,0.0,12,1009.9,1,2,"",87
"2024-04-16 06:36:00",7.9,5.9,0.0,0.0,12,1009.9,1,2,"",87
"2024-04-16 06:37:00",7.9,5.9,0.0,0.0,12,1009.9,1,2,"",87
"2024-04-16 06:38:00",7.9,5.9,0.0,0.0,14,1009.9,1,2,"",87
"2024-04-16 06:39:00",7.9,5.9,0.0,0.0,16,1009.9,1,2,"",87
"2024-04-16 06:40:00",7.9,5.9,0.0,0.0,18,1010.0,3,6,6.2,87
"2024-04-16 06:41:00",7.9,5.9,0.0,0.0,19,1009.9,1,2,"",87
"2024-04-16 06:42:00",8.1,6.1,0.0,0.0,19,1009.9,1,3,"",87
"2024-04-16 06:43:00",8.1,6.1,0.0,0.0,19,1010.0,1,2,"",87
"2024-04-16 06:44:00",8.1,6.1,0.0,0.0,19,1010.0,1,2,"",87
"2024-04-16 06:45:00",8.1,5.9,0.0,0.0,18,1010.1,1,2,"",86
"2024-04-16 06:46:00",8.1,5.9,0.0,0.0,18,1010.1,0,1,"",86
"2024-04-16 06:47:00",8.1,5.9,0.0,0.0,19,1010.1,1,2,"",86
"2024-04-16 06:48:00",8.2,6.0,0.0,0.0,18,1010.1,1,3,"",86
"2024-04-16 06:49:00",8.2,6.0,0.0,0.0,18,1010.1,1,3,"",86
"2024-04-16 06:50:00",8.2,6.0,0.0,0.0,14,1010.1,1,3,"",86
"2024-04-16 06:51:00",8.2,6.0,0.0,0.0,12,1010.1,3,7,6.3,86
"2024-04-16 06:52:00",8.2,6.0,0.0,0.0,16,1010.1,1,2,"",86
"2024-04-16 06:53:00",8.2,6.0,0.0,0.0,21,1010.1,1,3,"",86
"2024-04-16 06:54:00",8.2,6.0,0.0,0.0,23,1010.2,2,3,"",86
"2024-04-16 06:55:00",8.2,6.0,0.0,0.0,21,1010.1,2,4,7.3,86